Time,TemperatureF,DewpointF,PressureIn,WindDirection,WindDirectionDegrees,WindSpeedMPH,WindSpeedGustMPH,Humidity,HourlyPrecipIn,Conditions,Clouds,dailyrainin,SoftwareType,DateUTC
2013-03-07 00:00:00,49.0,35.0,30.26,NNE,30,17.0,20.0,57,-99.99,,,-99.99,,2013-03-07 06:00:00,
2013-03-07 00:21:00,49.0,35.0,30.26,NNE,30,17.0,20.0,57,-99.99,,,-99.99,,2013-03-07 06:21:00,
2013-03-07 00:31:00,49.0,35.0,30.26,NNE,30,17.0,20.0,57,-99.99,,,-99.99,,2013-03-07 06:31:00,
2013-03-07 00:41:00,49.0,35.0,30.26,NNE,30,17.0,20.0,57,-99.99,,,-99.99,,2013-03-07 06:41:00,
2013-03-07 00:51:00,49.0,35.0,30.26,NNE,30,17.0,20.0,57,-99.99,,,-99.99,,2013-03-07 06:51:00,
2013-03-07 01:00:00,47.0,33.0,30.27,NNE,30,21.0,23.0,57,-99.99,,,-99.99,,2013-03-07 07:00:00,
2013-03-07 01:21:00,47.0,33.0,30.27,NNE,30,21.0,23.0,57,-99.99,,,-99.99,,2013-03-07 07:21:00,
2013-03-07 01:31:00,47.0,33.0,30.27,NNE,30,21.0,23.0,57,-99.99,,,-99.99,,2013-03-07 07:31:00,
2013-03-07 01:41:00,47.0,33.0,30.27,NNE,30,21.0,23.0,57,-99.99,,,-99.99,,2013-03-07 07:41:00,
2013-03-07 01:51:00,47.0,33.0,30.27,NNE,30,21.0,23.0,57,-99.99,,,-99.99,,2013-03-07 07:51:00,
2013-03-07 02:00:00,46.0,33.0,30.27,NNE,20,17.0,18.0,59,-99.99,,,-99.99,,2013-03-07 08:00:00,
2013-03-07 02:21:00,46.0,33.0,30.27,NNE,20,17.0,18.0,59,-99.99,,,-99.99,,2013-03-07 08:21:00,
2013-03-07 02:31:00,46.0,33.0,30.27,NNE,20,17.0,18.0,59,-99.99,,,-99.99,,2013-03-07 08:31:00,
2013-03-07 02:42:00,46.0,33.0,30.27,NNE,20,17.0,18.0,59,-99.99,,,-99.99,,2013-03-07 08:42:00,
2013-03-07 02:52:00,46.0,33.0,30.27,NNE,20,17.0,18.0,59,-99.99,,,-99.99,,2013-03-07 08:52:00,
2013-03-07 03:00:00,45.0,33.0,30.25,NNE,30,17.0,20.0,61,-99.99,,,-99.99,,2013-03-07 09:00:00,
2013-03-07 03:21:00,45.0,33.0,30.25,NNE,30,17.0,20.0,61,-99.99,,,-99.99,,2013-03-07 09:21:00,
2013-03-07 03:31:00,45.0,33.0,30.25,NNE,30,17.0,20.0,61,-99.99,,,-99.99,,2013-03-07 09:31:00,
2013-03-07 03:41:00,45.0,33.0,30.25,NNE,30,17.0,20.0,61,-99.99,,,-99.99,,2013-03-07 09:41:00,
2013-03-07 03:51:00,45.0,33.0,30.25,NNE,30,17.0,20.0,61,-99.99,,,-99.99,,2013-03-07 09:51:00,
2013-03-07 04:00:00,44.0,34.0,30.24,NE,40,20.0,22.0,65,-99.99,,,-99.99,,2013-03-07 10:00:00,
2013-03-07 04:21:00,44.0,34.0,30.24,NE,40,20.0,22.0,65,-99.99,,,-99.99,,2013-03-07 10:21:00,
2013-03-07 04:31:00,44.0,34.0,30.24,NE,40,20.0,22.0,65,-99.99,,,-99.99,,2013-03-07 10:31:00,
2013-03-07 04:41:00,44.0,34.0,30.24,NE,40,20.0,22.0,65,-99.99,,,-99.99,,2013-03-07 10:41:00,
2013-03-07 05:00:00,44.0,34.0,30.25,NE,40,20.0,22.0,65,-99.99,,,-99.99,,2013-03-07 11:00:00,
2013-03-07 05:21:00,44.0,34.0,30.25,NE,40,20.0,22.0,65,-99.99,,,-99.99,,2013-03-07 11:21:00,
2013-03-07 05:32:00,44.0,34.0,30.25,NE,40,20.0,22.0,65,-99.99,,,-99.99,,2013-03-07 11:32:00,
2013-03-07 05:41:00,44.0,34.0,30.25,NE,40,20.0,22.0,65,-99.99,,,-99.99,,2013-03-07 11:41:00,
2013-03-07 05:52:00,44.0,34.0,30.25,NE,40,20.0,22.0,65,-99.99,,,-99.99,,2013-03-07 11:52:00,
2013-03-07 06:00:00,44.0,33.0,30.28,NNE,30,18.0,21.0,64,-99.99,,,-99.99,,2013-03-07 12:00:00,
2013-03-07 06:21:00,44.0,33.0,30.28,NNE,30,18.0,21.0,64,-99.99,,,-99.99,,2013-03-07 12:21:00,
2013-03-07 06:32:00,44.0,33.0,30.28,NNE,30,18.0,21.0,64,-99.99,,,-99.99,,2013-03-07 12:32:00,
2013-03-07 06:41:00,44.0,33.0,30.28,NNE,30,18.0,21.0,64,-99.99,,,-99.99,,2013-03-07 12:41:00,
2013-03-07 06:51:00,44.0,33.0,30.28,NNE,30,18.0,21.0,64,-99.99,,,-99.99,,2013-03-07 12:51:00,
2013-03-07 07:00:00,44.0,33.0,30.32,NNE,30,15.0,16.0,65,-99.99,,,-99.99,,2013-03-07 13:00:00,
2013-03-07 07:21:00,44.0,33.0,30.32,NNE,30,15.0,16.0,65,-99.99,,,-99.99,,2013-03-07 13:21:00,
2013-03-07 07:31:00,44.0,33.0,30.32,NNE,30,15.0,16.0,65,-99.99,,,-99.99,,2013-03-07 13:31:00,
2013-03-07 07:41:00,44.0,33.0,30.32,NNE,30,15.0,16.0,65,-99.99,,,-99.99,,2013-03-07 13:41:00,
2013-03-07 07:52:00,44.0,33.0,30.32,NNE,30,15.0,16.0,65,-99.99,,,-99.99,,2013-03-07 13:52:00,
2013-03-07 08:00:00,44.0,33.0,30.35,NNE,20,15.0,16.0,67,-99.99,,,-99.99,,2013-03-07 14:00:00,
2013-03-07 08:21:00,44.0,33.0,30.35,NNE,20,15.0,16.0,67,-99.99,,,-99.99,,2013-03-07 14:21:00,
2013-03-07 08:31:00,44.0,33.0,30.35,NNE,20,15.0,16.0,67,-99.99,,,-99.99,,2013-03-07 14:31:00,
2013-03-07 08:41:00,44.0,33.0,30.35,NNE,20,15.0,16.0,67,-99.99,,,-99.99,,2013-03-07 14:41:00,
2013-03-07 09:00:00,44.0,33.0,30.35,NE,40,14.0,16.0,65,-99.99,,,-99.99,,2013-03-07 15:00:00,
2013-03-07 09:21:00,44.0,33.0,30.35,NE,40,14.0,16.0,65,-99.99,,,-99.99,,2013-03-07 15:21:00,
2013-03-07 09:31:00,44.0,33.0,30.35,NE,40,14.0,16.0,65,-99.99,,,-99.99,,2013-03-07 15:31:00,
2013-03-07 09:41:00,44.0,33.0,30.35,NE,40,14.0,16.0,65,-99.99,,,-99.99,,2013-03-07 15:41:00,
2013-03-07 09:51:00,44.0,33.0,30.35,NE,40,14.0,16.0,65,-99.99,,,-99.99,,2013-03-07 15:51:00,
2013-03-07 10:00:00,45.0,33.0,30.34,NE,50,8.0,10.0,62,-99.99,,,-99.99,,2013-03-07 16:00:00,
2013-03-07 10:21:00,45.0,33.0,30.34,NE,50,8.0,10.0,62,-99.99,,,-99.99,,2013-03-07 16:21:00,
2013-03-07 10:31:00,45.0,33.0,30.34,NE,50,8.0,10.0,62,-99.99,,,-99.99,,2013-03-07 16:31:00,
2013-03-07 10:41:00,45.0,33.0,30.34,NE,50,8.0,10.0,62,-99.99,,,-99.99,,2013-03-07 16:41:00,
2013-03-07 10:51:00,45.0,33.0,30.34,NE,50,8.0,10.0,62,-99.99,,,-99.99,,2013-03-07 16:51:00,
2013-03-07 11:00:00,46.0,34.0,30.35,North,10,6.0,7.0,61,-99.99,,,-99.99,,2013-03-07 17:00:00,
2013-03-07 11:21:00,46.0,34.0,30.35,North,10,6.0,7.0,61,-99.99,,,-99.99,,2013-03-07 17:21:00,
2013-03-07 11:31:00,46.0,34.0,30.35,North,10,6.0,7.0,61,-99.99,,,-99.99,,2013-03-07 17:31:00,
2013-03-07 11:41:00,46.0,34.0,30.35,North,10,6.0,7.0,61,-99.99,,,-99.99,,2013-03-07 17:41:00,
2013-03-07 11:52:00,46.0,34.0,30.35,North,10,6.0,7.0,61,-99.99,,,-99.99,,2013-03-07 17:52:00,
2013-03-07 12:21:00,47.0,34.0,30.33,North,360,3.0,5.0,62,-99.99,,,-99.99,,2013-03-07 18:21:00,
2013-03-07 12:31:00,47.0,34.0,30.33,North,360,3.0,5.0,62,-99.99,,,-99.99,,2013-03-07 18:31:00,
2013-03-07 12:41:00,47.0,34.0,30.33,North,360,3.0,5.0,62,-99.99,,,-99.99,,2013-03-07 18:41:00,
2013-03-07 12:51:00,47.0,34.0,30.33,North,360,3.0,5.0,62,-99.99,,,-99.99,,2013-03-07 18:51:00,
2013-03-07 13:00:00,48.0,36.0,30.29,ESE,110,2.0,2.0,64,-99.99,,,-99.99,,2013-03-07 19:00:00,
2013-03-07 13:42:00,48.0,36.0,30.29,ESE,110,2.0,2.0,64,-99.99,,,-99.99,,2013-03-07 19:42:00,
2013-03-07 13:51:00,48.0,36.0,30.29,ESE,110,2.0,2.0,64,-99.99,,,-99.99,,2013-03-07 19:51:00,
2013-03-07 14:00:00,51.0,37.0,30.26,SSE,160,5.0,6.0,57,-99.99,,,-99.99,,2013-03-07 20:00:00,
2013-03-07 14:21:00,51.0,37.0,30.26,SSE,160,5.0,6.0,57,-99.99,,,-99.99,,2013-03-07 20:21:00,
2013-03-07 14:31:00,51.0,37.0,30.26,SSE,160,5.0,6.0,57,-99.99,,,-99.99,,2013-03-07 20:31:00,
2013-03-07 14:41:00,51.0,37.0,30.26,SSE,160,5.0,6.0,57,-99.99,,,-99.99,,2013-03-07 20:41:00,
2013-03-07 14:52:00,51.0,37.0,30.26,SSE,160,5.0,6.0,57,-99.99,,,-99.99,,2013-03-07 20:52:00,
2013-03-07 15:00:00,53.0,38.0,30.26,SSW,200,7.0,9.0,57,-99.99,,,-99.99,,2013-03-07 21:00:00,
2013-03-07 15:21:00,53.0,38.0,30.26,SSW,200,7.0,9.0,57,-99.99,,,-99.99,,2013-03-07 21:21:00,
2013-03-07 15:31:00,53.0,38.0,30.26,SSW,200,7.0,9.0,57,-99.99,,,-99.99,,2013-03-07 21:31:00,
2013-03-07 15:41:00,53.0,38.0,30.26,SSW,200,7.0,9.0,57,-99.99,,,-99.99,,2013-03-07 21:41:00,
2013-03-07 15:52:00,53.0,38.0,30.26,SSW,200,7.0,9.0,57,-99.99,,,-99.99,,2013-03-07 21:52:00,
2013-03-07 16:00:00,52.0,39.0,30.24,SW,230,7.0,9.0,59,-99.99,,,-99.99,,2013-03-07 22:00:00,
2013-03-07 16:21:00,52.0,39.0,30.24,SW,230,7.0,9.0,59,-99.99,,,-99.99,,2013-03-07 22:21:00,
2013-03-07 16:31:00,52.0,39.0,30.24,SW,230,7.0,9.0,59,-99.99,,,-99.99,,2013-03-07 22:31:00,
2013-03-07 16:41:00,52.0,39.0,30.24,SW,230,7.0,9.0,59,-99.99,,,-99.99,,2013-03-07 22:41:00,
2013-03-07 16:52:00,52.0,39.0,30.24,SW,230,7.0,9.0,59,-99.99,,,-99.99,,2013-03-07 22:52:00,
2013-03-07 17:00:00,53.0,41.0,30.24,SW,220,7.0,9.0,64,-99.99,,,-99.99,,2013-03-07 23:00:00,
2013-03-07 17:21:00,53.0,41.0,30.24,SW,220,7.0,9.0,64,-99.99,,,-99.99,,2013-03-07 23:21:00,
2013-03-07 17:31:00,53.0,41.0,30.24,SW,220,7.0,9.0,64,-99.99,,,-99.99,,2013-03-07 23:31:00,
2013-03-07 17:41:00,53.0,41.0,30.24,SW,220,7.0,9.0,64,-99.99,,,-99.99,,2013-03-07 23:41:00,
2013-03-07 17:52:00,53.0,41.0,30.24,SW,220,7.0,9.0,64,-99.99,,,-99.99,,2013-03-07 23:52:00,
2013-03-07 18:00:00,53.0,43.0,30.24,West,260,5.0,6.0,68,-99.99,,,-99.99,,2013-03-08 00:00:00,
2013-03-07 18:21:00,53.0,43.0,30.24,West,260,5.0,6.0,68,-99.99,,,-99.99,,2013-03-08 00:21:00,
2013-03-07 18:31:00,53.0,43.0,30.24,West,260,5.0,6.0,68,-99.99,,,-99.99,,2013-03-08 00:31:00,
2013-03-07 18:42:00,53.0,43.0,30.24,West,260,5.0,6.0,68,-99.99,,,-99.99,,2013-03-08 00:42:00,
2013-03-07 18:51:00,53.0,43.0,30.24,West,260,5.0,6.0,68,-99.99,,,-99.99,,2013-03-08 00:51:00,
2013-03-07 19:00:00,53.0,44.0,30.25,West,270,6.0,7.0,71,-99.99,,,-99.99,,2013-03-08 01:00:00,
2013-03-07 19:21:00,53.0,44.0,30.25,West,270,6.0,7.0,71,-99.99,,,-99.99,,2013-03-08 01:21:00,
2013-03-07 19:31:00,53.0,44.0,30.25,West,270,6.0,7.0,71,-99.99,,,-99.99,,2013-03-08 01:31:00,
2013-03-07 19:41:00,53.0,44.0,30.25,West,270,6.0,7.0,71,-99.99,,,-99.99,,2013-03-08 01:41:00,
2013-03-07 19:51:00,53.0,44.0,30.25,West,270,6.0,7.0,71,-99.99,,,-99.99,,2013-03-08 01:51:00,
2013-03-07 20:00:00,52.0,45.0,30.25,West,260,7.0,8.0,74,-99.99,,,-99.99,,2013-03-08 02:00:00,
2013-03-07 20:21:00,52.0,45.0,30.25,West,260,7.0,8.0,74,-99.99,,,-99.99,,2013-03-08 02:21:00,
2013-03-07 20:31:00,52.0,45.0,30.25,West,260,7.0,8.0,74,-99.99,,,-99.99,,2013-03-08 02:31:00,
2013-03-07 20:41:00,52.0,45.0,30.25,West,260,7.0,8.0,74,-99.99,,,-99.99,,2013-03-08 02:41:00,
2013-03-07 20:52:00,52.0,45.0,30.25,West,260,7.0,8.0,74,-99.99,,,-99.99,,2013-03-08 02:52:00,
2013-03-07 21:00:00,53.0,46.0,30.26,West,270,7.0,8.0,76,-99.99,,,-99.99,,2013-03-08 03:00:00,
2013-03-07 21:21:00,53.0,46.0,30.26,West,270,7.0,8.0,76,-99.99,,,-99.99,,2013-03-08 03:21:00,
2013-03-07 21:31:00,53.0,46.0,30.26,West,270,7.0,8.0,76,-99.99,,,-99.99,,2013-03-08 03:31:00,
2013-03-07 21:41:00,53.0,46.0,30.26,West,270,7.0,8.0,76,-99.99,,,-99.99,,2013-03-08 03:41:00,
2013-03-07 21:52:00,53.0,46.0,30.26,West,270,7.0,8.0,76,-99.99,,,-99.99,,2013-03-08 03:52:00,
2013-03-07 22:00:00,53.0,49.0,30.27,WNW,300,8.0,9.0,85,-99.99,,,-99.99,,2013-03-08 04:00:00,
2013-03-07 22:21:00,53.0,49.0,30.27,WNW,300,8.0,9.0,85,-99.99,,,-99.99,,2013-03-08 04:21:00,
2013-03-07 22:31:00,53.0,49.0,30.27,WNW,300,8.0,9.0,85,-99.99,,,-99.99,,2013-03-08 04:31:00,
2013-03-07 22:42:00,53.0,49.0,30.27,WNW,300,8.0,9.0,85,-99.99,,,-99.99,,2013-03-08 04:42:00,
2013-03-07 22:51:00,53.0,49.0,30.27,WNW,300,8.0,9.0,85,-99.99,,,-99.99,,2013-03-08 04:51:00,
2013-03-07 23:00:00,53.0,49.0,30.25,WNW,300,7.0,9.0,85,-99.99,,,-99.99,,2013-03-08 05:00:00,
2013-03-07 23:22:00,53.0,49.0,30.25,WNW,300,7.0,9.0,85,-99.99,,,-99.99,,2013-03-08 05:22:00,
2013-03-07 23:31:00,53.0,49.0,30.25,WNW,300,7.0,9.0,85,-99.99,,,-99.99,,2013-03-08 05:31:00,
2013-03-07 23:42:00,53.0,49.0,30.25,WNW,300,7.0,9.0,85,-99.99,,,-99.99,,2013-03-08 05:42:00,
2013-03-07 23:52:00,53.0,49.0,30.25,WNW,300,7.0,9.0,85,-99.99,,,-99.99,,2013-03-08 05:52:00,